Moffett NAS, CA

8:29 PM PDT on May 26, 2017 (GMT -0700)
Moffett Federal Air Field

Weather History for KNUQ - September, 2014

Change the Weather History Date:

Sunday, September 21, 2014

  Actual Average Record
Temperature  
Mean Temperature 69 °F 67 °F  
Max Temperature 74 °F 77 °F 97 °F (2003)
Min Temperature 64 °F 57 °F 48 °F (1960)
Degree Days  
Heating Degree Days 0    
Month to date heating degree days 2  
Since 1 July heating degree days 2  
Cooling Degree Days 4    
Month to date cooling degree days 100  
Year to date cooling degree days 542  
Growing Degree Days 18 (Base 50)    
Moisture  
Dew Point 58 °F    
Average Humidity 70    
Maximum Humidity 78    
Minimum Humidity 61    
Precipitation  
Precipitation 0.00 in 0.01 in 0.49 in (2013)
Month to date precipitation T 0.10  
Year to date precipitation 5.19 9.76  
Since 1 July precipitation T  
Sea Level Pressure  
Sea Level Pressure 30.00 in    
Wind  
Wind Speed 6 mph (NNW)    
Max Wind Speed 21 mph    
Max Gust Speed 24 mph    
Visibility 10 miles    
Events      
T = Trace of Precipitation, MM = Missing Value Source: NWS Daily Summary

Daily Weather History Graph

Daily Weather History Graph

Search for Another Location

Airport or City:

Trip Planner

Search our weather history database for the weather conditions in past years. The results will help you decide how hot, cold, wet, or windy it might be!

Date:

Astronomy

Sep. 21, 2014 Rise Set
Actual Time 6:55 AM PDT 7:06 PM PDT
Civil Twilight 6:29 AM PDT 7:32 PM PDT
Nautical Twilight 5:58 AM PDT 8:02 PM PDT
Astronomical Twilight 5:27 AM PDT 8:33 PM PDT
Moon 4:36 AM PDT (9/21) 5:43 PM PDT (9/21)
Length of Visible Light 13h 03m
Length of Day
12h 11m
Waning Crescent, 6% of the Moon is Illuminated
Sep 21
Waning Crescent
Sep 23
New
Oct 1
First Quarter
Oct 8
Full
Oct 15
Last Quarter

Hourly Weather History & Observations

Time (PDT) Temp. Dew Point Humidity Pressure Visibility Wind Dir Wind Speed Gust Speed Precip Events Conditions
12:33 AM 64.4 °F 57.2 °F 77% 29.96 in 10.0 mi Calm Calm - N/A   Mostly Cloudy
12:56 AM 64.9 °F 57.9 °F 78% 29.94 in 10.0 mi Calm Calm - N/A   Overcast
1:56 AM 64.9 °F 57.9 °F 78% 29.96 in 10.0 mi NW 4.6 mph - N/A   Overcast
2:56 AM 64.0 °F 57.0 °F 78% 29.97 in 10.0 mi NW 4.6 mph - N/A   Overcast
3:56 AM 64.0 °F 57.0 °F 78% 29.97 in 10.0 mi Calm Calm - N/A   Overcast
4:56 AM 64.0 °F 55.9 °F 75% 29.97 in 10.0 mi WNW 3.5 mph - N/A   Overcast
5:56 AM 64.0 °F 55.9 °F 75% 29.97 in 10.0 mi West 4.6 mph - N/A   Overcast
6:56 AM 64.0 °F 57.0 °F 78% 29.99 in 10.0 mi Calm Calm - N/A   Overcast
7:56 AM 64.0 °F 57.0 °F 78% 30.01 in 10.0 mi Calm Calm - N/A   Overcast
8:56 AM 64.9 °F 57.0 °F 75% 30.02 in 10.0 mi Calm Calm - N/A   Overcast
9:56 AM 66.9 °F 57.0 °F 70% 30.03 in 10.0 mi Calm Calm - N/A   Overcast
10:56 AM 70.0 °F 57.0 °F 63% 30.03 in 10.0 mi Calm Calm - N/A   Overcast
11:13 AM 71.6 °F 57.2 °F 60% 30.02 in 10.0 mi Variable 4.6 mph - N/A   Scattered Clouds
11:56 AM 72.0 °F 57.9 °F 61% 30.02 in 10.0 mi North 8.1 mph - N/A   Clear
12:56 PM 72.0 °F 57.9 °F 61% 30.01 in 10.0 mi NNW 9.2 mph - N/A   Clear
1:56 PM 73.0 °F 59.0 °F 61% 30.01 in 10.0 mi NNW 12.7 mph - N/A   Clear
2:56 PM 72.0 °F 60.1 °F 66% 30.00 in 10.0 mi NNW 15.0 mph - N/A   Clear
3:56 PM 72.0 °F 59.0 °F 64% 29.99 in 10.0 mi NNW 16.1 mph - N/A   Clear
4:56 PM 72.0 °F 60.1 °F 66% 29.99 in 10.0 mi NNW 16.1 mph - N/A   Clear
5:56 PM 71.1 °F 59.0 °F 66% 30.00 in 10.0 mi NNW 12.7 mph 20.7 mph N/A   Clear
6:56 PM 66.9 °F 57.9 °F 73% 30.01 in 10.0 mi NNW 10.4 mph - N/A   Clear
7:56 PM 66.0 °F 57.9 °F 75% 30.02 in 10.0 mi NW 5.8 mph - N/A   Clear
8:56 PM 64.9 °F 57.9 °F 78% 30.03 in 10.0 mi NNW 4.6 mph - N/A   Clear
9:18 PM 64.4 °F 57.2 °F 77% 30.03 in 10.0 mi NW 6.9 mph - N/A   Mostly Cloudy
9:56 PM 64.9 °F 57.9 °F 78% 30.04 in 10.0 mi NNW 4.6 mph - N/A   Overcast
10:56 PM 64.9 °F 57.9 °F 78% 30.03 in 10.0 mi NW 5.8 mph - N/A   Overcast
11:56 PM 64.9 °F 57.9 °F 78% 30.03 in 10.0 mi Calm Calm - N/A   Overcast